Wind_Speed
32 34 35 35 35 34 34 33 35 35 37 33 33 34 31 30 28 27 24 16 14 15 16 16 15 14 15 16 14 10 13 14 17 20 20 20 20 22 17 10 0 12 4 13 9 7 4
33 34 35 36 36 36 35 35 34 36 36 38 36 33 30 30 28 29 25 20 18 17 18 18 16 17 16 16 13 12 11 14 17 17 20 21 21 25 26 11 6 15 8 7 9 7 9
34 35 35 36 37 37 37 37 36 35 37 37 37 35 35 33 30 28 25 19 17 18 19 17 16 16 17 15 15 14 12 13 15 16 17 23 25 25 21 11 8 13 9 6 7 5 8
36 35 37 37 39 38 38 38 37 36 35 36 36 36 35 33 30 27 25 20 18 19 18 16 18 16 16 14 16 15 14 13 14 16 19 20 20 24 24 20 16 9 5 18 23 11 10
36 36 37 38 39 39 39 39 38 37 37 36 35 36 35 34 32 30 28 22 19 18 19 17 17 16 16 15 15 15 16 15 16 16 17 19 21 21 19 10 9 1 10 23 7 5 10
33 35 37 38 39 39 40 40 40 39 39 38 36 35 33 31 29 27 26 27 24 21 22 19 17 15 15 16 14 15 17 16 15 17 18 18 18 18 18 13 8 10 24 19 9 10 14
31 32 35 37 39 39 39 40 40 40 40 39 38 36 34 32 30 29 26 28 28 25 24 22 22 19 15 12 13 15 16 17 16 18 20 19 17 18 18 13 14 13 24 19 3 11 14
30 32 34 36 38 39 39 38 39 40 40 39 38 37 36 34 33 32 32 31 27 26 23 28 26 24 22 15 12 14 17 17 16 18 21 23 21 21 17 15 15 16 17 13 10 10 17
29 31 32 33 35 38 39 38 37 37 39 40 40 39 37 37 35 34 32 32 30 31 28 25 26 28 26 23 17 14 16 18 18 18 21 21 12 11 18 20 19 21 12 12 9 11 12
29 31 32 33 35 36 38 38 37 36 36 37 39 39 38 37 36 34 36 31 31 31 30 24 27 24 23 23 21 19 15 18 20 20 21 21 20 17 25 23 20 16 11 11 12 13 8
32 30 31 32 32 34 36 38 38 37 36 35 35 37 39 38 37 38 32 34 32 30 30 17 26 28 22 20 21 23 19 18 20 21 23 19 23 21 15 18 19 14 10 11 15 16 12
27 28 27 29 32 33 34 35 36 37 36 35 34 33 33 36 38 38 35 33 32 30 34 21 27 21 24 21 20 21 19 19 20 23 25 22 20 25 20 19 19 14 11 12 11 10 14
26 25 25 27 28 28 29 31 33 33 34 34 34 34 34 34 36 35 36 35 34 36 26 20 17 24 22 22 21 22 23 20 19 21 22 21 24 19 20 19 14 16 13 9 7 9 10
29 29 28 27 27 27 27 27 29 30 29 31 32 30 30 33 35 36 37 38 39 36 26 9 15 14 20 20 22 23 23 21 17 18 13 13 14 20 19 20 18 16 15 13 11 12 22
10 32 33 30 26 26 26 25 25 26 26 26 26 26 27 28 29 34 38 40 40 32 20 21 20 24 15 19 19 21 25 22 19 18 20 15 11 15 20 21 19 15 16 15 16 17 16
6 7 17 31 32 32 29 26 26 27 26 25 26 26 27 26 27 32 38 41 38 32 34 32 30 16 19 17 20 23 21 24 22 20 19 20 16 15 19 17 20 21 10 15 16 18 18
14 10 7 8 21 20 31 32 29 28 28 27 26 26 23 25 25 28 34 40 36 37 44 46 40 34 21 19 18 25 25 20 21 21 21 19 24 17 17 21 19 18 24 18 14 14 21
20 18 16 10 12 14 12 21 23 26 26 28 29 30 27 26 24 23 28 30 36 38 47 42 41 37 35 23 24 18 20 20 21 20 24 23 20 21 17 20 22 22 16 14 22 23 19
23 23 21 20 18 16 18 13 16 17 22 24 26 33 28 31 28 25 23 29 35 45 47 34 37 38 37 40 33 27 24 20 30 26 23 23 24 22 24 18 18 17 21 22 18 18 25
23 22 23 24 24 22 19 19 18 19 17 19 23 25 23 30 31 35 32 32 36 32 33 37 37 37 38 42 43 39 31 17 33 36 29 31 26 27 22 19 16 22 22 23 24 23 18
23 21 23 24 25 26 24 21 20 20 21 22 20 24 26 27 29 31 34 33 35 33 33 34 36 37 40 40 40 41 37 36 19 37 35 34 36 33 28 28 22 23 19 21 25 28 28
26 23 20 21 24 25 26 25 24 23 22 22 22 22 20 24 28 30 33 33 32 32 33 35 35 33 33 34 33 34 32 26 29 13 28 35 36 35 35 35 22 24 20 32 21 20 23
29 26 21 19 19 19 20 22 22 23 24 24 23 22 20 24 22 27 29 30 29 34 36 37 37 35 33 29 32 29 34 36 36 40 28 34 38 36 37 34 32 36 23 21 20 19 26
37 33 25 22 19 17 16 17 19 20 22 23 23 23 22 20 20 19 27 37 39 37 35 35 35 38 38 43 39 31 33 36 38 41 37 39 38 38 38 31 38 34 26 23 28 21 22
37 38 32 25 24 21 19 18 17 19 21 21 22 22 21 20 22 22 33 31 34 38 31 33 35 37 42 38 35 30 29 31 29 37 43 40 38 36 37 36 34 29 24 24 26 22 29
35 38 36 30 27 23 21 20 18 18 20 21 20 21 22 24 28 31 30 28 26 28 33 36 38 43 35 34 35 35 32 27 28 32 38 40 42 37 37 30 35 22 30 32 28 32 44
35 37 36 33 30 26 26 23 22 20 19 21 22 22 24 27 30 25 29 31 32 33 32 32 43 40 36 32 33 31 29 25 25 25 27 32 38 38 38 36 28 33 39 41 36 36 43
36 36 35 34 32 31 25 24 22 22 21 21 23 23 25 28 23 24 25 27 27 27 31 36 30 28 34 32 29 25 25 23 26 19 15 25 29 33 34 32 35 47 48 49 49 40 17
42 35 37 36 34 33 29 25 24 22 22 23 24 23 25 25 20 23 21 26 28 26 29 30 29 29 32 38 37 38 34 31 34 32 35 36 37 32 40 42 44 52 33 50 47 42 30
Wind_Direction
226 225 224 222 220 218 218 218 213 213 214 215 217 222 225 229 235 247 258 251 241 239 232 239 231 231 232 228 225 242 218 214 217 197 186 184 184 187 174 106 295 257 251 263 289 288 296
227 226 225 226 223 221 220 219 218 215 214 217 218 222 225 226 235 245 249 254 245 240 236 237 240 236 238 236 231 234 225 214 220 207 196 189 185 184 179 188 225 231 263 244 268 269 307
228 227 225 226 227 225 222 221 220 219 219 220 222 223 229 229 236 243 250 248 245 237 233 236 238 241 239 235 227 226 221 215 216 214 205 204 199 197 185 181 211 251 229 238 237 305 276
230 228 227 225 225 227 227 224 223 222 221 222 223 223 227 229 232 238 242 247 244 235 228 234 236 243 239 234 229 225 222 213 210 210 213 213 203 201 201 168 206 219 167 256 252 162 291
233 229 228 227 226 226 228 228 226 225 225 224 224 226 227 230 232 235 238 239 246 236 225 233 239 241 235 236 230 224 223 214 211 207 210 216 213 211 203 191 170 116 271 310 293 88 265
238 232 229 228 228 227 227 228 228 228 227 227 227 227 228 229 230 230 230 235 240 236 224 228 231 234 228 234 230 225 223 222 213 213 208 214 217 216 212 196 205 238 238 229 210 99 272
238 235 234 232 229 228 228 229 229 230 229 229 229 230 229 229 229 228 230 231 232 236 225 227 227 241 224 232 230 227 224 222 214 211 210 215 213 215 214 225 224 253 301 308 236 110 271
241 234 235 233 232 229 228 228 229 230 232 232 232 231 231 231 230 228 228 233 233 239 229 229 233 234 239 238 236 227 224 222 215 207 209 212 215 217 211 236 244 240 252 274 314 294 296
242 239 233 230 231 231 228 227 229 230 231 232 233 233 232 232 233 232 231 230 233 242 235 231 236 236 240 237 243 240 225 221 215 206 211 207 193 260 229 219 228 230 248 239 255 278 289
242 238 237 234 234 232 229 227 227 228 230 231 233 233 234 234 234 235 234 234 236 240 242 228 239 234 235 240 239 244 234 226 220 210 209 218 183 238 237 233 232 235 243 279 267 269 265
241 240 236 230 227 228 228 228 227 227 228 229 230 230 232 233 233 234 234 236 236 237 242 249 248 235 232 233 240 233 237 231 224 217 217 210 216 224 241 222 224 221 222 242 236 250 255
239 234 235 229 228 227 225 226 228 228 228 228 230 230 230 233 234 235 233 233 234 234 236 232 246 235 230 228 237 243 232 233 227 226 221 218 211 226 230 229 228 221 234 237 242 252 256
238 236 232 223 226 225 224 224 225 228 228 229 230 231 231 231 233 234 233 232 231 230 215 205 249 242 233 233 234 243 236 236 234 233 232 226 236 236 231 229 235 231 214 234 255 261 280
242 235 231 225 224 223 222 221 223 224 225 227 228 228 229 230 231 230 229 229 229 228 210 226 217 245 231 232 240 237 241 234 230 233 220 255 252 252 245 231 218 238 221 211 234 258 261
337 236 229 226 222 221 217 219 220 219 220 224 227 228 230 231 229 228 226 228 229 224 211 234 241 214 216 216 221 255 234 237 239 234 230 217 250 253 267 244 225 214 256 219 238 255 276
268 303 246 236 217 225 222 227 226 223 223 226 228 229 231 230 230 228 226 226 223 218 218 212 216 208 233 224 237 226 241 234 227 234 242 216 238 202 241 236 233 205 226 247 227 243 234
242 247 256 241 230 238 229 221 226 223 221 223 223 226 223 227 227 228 227 224 222 212 223 219 226 221 207 217 225 245 238 232 239 221 233 237 220 198 232 244 214 234 213 218 226 254 255
239 229 236 210 238 219 221 219 219 218 218 225 227 231 222 225 227 226 223 219 217 215 241 227 233 234 224 212 220 215 226 233 230 231 216 237 230 229 203 242 254 208 238 261 228 226 258
243 238 230 235 227 227 216 212 219 220 219 223 225 231 222 226 226 227 220 216 214 218 228 230 230 228 225 217 209 198 187 228 223 216 222 219 231 223 201 220 239 260 213 230 251 261 224
240 243 240 235 237 233 225 221 221 217 223 218 222 229 222 227 225 225 219 219 227 229 231 228 224 223 222 226 227 219 193 228 227 223 221 207 215 232 216 234 233 264 245 235 224 228 245
242 240 237 235 233 234 232 230 234 231 224 230 224 224 224 224 226 226 228 230 229 229 226 226 226 227 225 228 226 230 220 203 242 232 226 223 223 216 219 207 228 229 283 256 245 246 229
243 237 232 227 230 234 237 233 232 233 232 233 233 236 233 233 233 231 230 230 232 229 230 227 228 225 227 230 231 225 223 226 217 243 245 229 234 231 232 214 226 239 262 252 227 231 240
234 234 232 226 221 228 233 233 231 233 235 236 238 240 237 240 235 234 233 236 230 229 226 226 226 224 227 232 229 226 204 217 219 222 225 226 232 235 233 229 229 230 230 248 253 248 253
236 234 233 229 225 228 234 235 234 237 240 239 238 238 238 242 242 238 230 230 227 229 227 230 226 228 225 228 232 226 237 239 232 221 217 233 224 230 235 231 234 233 236 248 257 250 253
231 228 233 229 229 230 236 241 242 240 240 236 238 239 238 240 238 235 237 240 235 233 231 234 233 234 232 237 242 240 236 242 235 235 225 234 238 238 239 238 242 238 236 241 244 242 237
225 225 228 229 229 235 245 244 245 242 238 236 234 240 245 242 241 247 253 246 240 234 233 230 233 232 232 233 235 236 240 245 241 236 236 232 241 238 237 239 237 237 241 224 217 235 239
227 222 223 226 230 235 243 242 243 245 240 235 235 239 243 246 245 240 239 240 237 233 228 236 232 235 231 234 236 236 236 243 244 245 237 230 233 236 237 238 230 233 236 237 217 228 245
225 227 227 222 228 229 233 234 240 238 236 234 235 236 241 243 243 237 237 239 235 230 232 242 240 239 230 228 229 224 214 217 227 226 223 235 249 245 230 236 230 236 232 229 234 242 215
225 227 226 222 223 225 228 231 233 232 232 235 233 234 239 239 232 235 233 236 236 233 230 236 241 240 235 221 213 217 214 214 214 198 217 236 233 216 221 222 225 241 242 220 234 252 249
Height
5851 5856 5860 5864 5867 5871 5875 5880 5883 5887 5891 5895 5898 5902 5905 5907 5908 5910 5912 5914 5915 5916 5918 5920 5921 5923 5924 5925 5927 5927 5928 5928 5930 5932 5934 5936 5938 5941 5945 5946 5952 5955 5953 5954 5954 5952 5952
5845 5849 5854 5858 5862 5866 5870 5874 5878 5882 5886 5890 5894 5897 5901 5904 5906 5908 5910 5912 5913 5913 5915 5917 5919 5920 5921 5923 5924 5925 5925 5926 5928 5930 5932 5934 5936 5939 5940 5943 5949 5952 5950 5953 5954 5955 5952
5839 5843 5847 5851 5856 5861 5865 5869 5872 5877 5881 5885 5889 5892 5896 5899 5902 5904 5906 5909 5909 5911 5913 5914 5916 5917 5919 5921 5921 5923 5924 5925 5927 5928 5930 5932 5934 5937 5940 5941 5947 5948 5948 5952 5952 5956 5954
5833 5837 5841 5845 5849 5854 5859 5863 5867 5871 5875 5879 5883 5887 5891 5895 5897 5900 5903 5904 5906 5908 5910 5912 5913 5915 5916 5917 5919 5921 5922 5923 5924 5926 5927 5930 5933 5934 5937 5940 5943 5946 5948 5944 5942 5947 5954
5828 5831 5835 5839 5843 5847 5851 5856 5860 5865 5869 5874 5878 5882 5886 5889 5892 5895 5898 5901 5903 5904 5906 5909 5911 5912 5914 5915 5918 5919 5920 5922 5922 5924 5926 5929 5931 5933 5937 5940 5942 5946 5949 5947 5946 5943 5951
5822 5825 5829 5832 5836 5840 5844 5849 5854 5858 5863 5867 5872 5876 5880 5883 5887 5891 5894 5897 5899 5900 5902 5905 5908 5910 5912 5913 5914 5916 5918 5920 5922 5923 5926 5928 5930 5932 5936 5938 5941 5947 5938 5940 5944 5945 5951
5816 5819 5822 5826 5830 5834 5838 5842 5847 5852 5856 5861 5865 5869 5874 5878 5882 5886 5890 5893 5895 5896 5900 5902 5904 5907 5909 5911 5912 5914 5915 5918 5921 5923 5925 5927 5930 5931 5934 5937 5941 5946 5941 5939 5942 5935 5948
5810 5812 5815 5819 5823 5827 5831 5836 5840 5845 5850 5854 5859 5863 5868 5872 5877 5881 5884 5886 5891 5892 5896 5898 5900 5903 5905 5908 5910 5911 5914 5917 5919 5921 5923 5926 5927 5930 5933 5937 5941 5943 5947 5945 5945 5949 5946
5803 5806 5809 5812 5816 5820 5825 5829 5834 5838 5843 5848 5853 5857 5862 5866 5871 5875 5879 5882 5885 5887 5891 5894 5897 5899 5902 5905 5907 5910 5912 5913 5916 5918 5920 5922 5929 5932 5931 5932 5934 5937 5940 5943 5946 5946 5943
5798 5800 5802 5806 5809 5813 5817 5823 5827 5832 5837 5841 5846 5851 5856 5860 5866 5869 5872 5878 5881 5884 5886 5892 5892 5895 5898 5901 5905 5907 5909 5912 5913 5916 5918 5920 5924 5926 5926 5929 5931 5933 5936 5938 5940 5941 5942
5791 5794 5796 5799 5802 5807 5811 5816 5821 5825 5830 5835 5839 5844 5849 5854 5859 5861 5870 5871 5876 5880 5882 5890 5888 5890 5895 5899 5900 5904 5906 5908 5910 5913 5916 5919 5920 5921 5924 5926 5928 5931 5935 5936 5938 5937 5938
5786 5788 5790 5792 5796 5800 5804 5809 5814 5818 5823 5828 5833 5837 5841 5846 5851 5856 5861 5866 5871 5876 5876 5884 5882 5888 5890 5894 5897 5898 5902 5904 5906 5908 5911 5915 5916 5918 5921 5923 5925 5928 5931 5932 5933 5935 5936
5782 5784 5786 5788 5791 5794 5798 5802 5807 5812 5817 5821 5826 5830 5835 5839 5844 5851 5855 5860 5866 5866 5879 5881 5881 5883 5887 5890 5893 5895 5898 5900 5903 5905 5908 5911 5913 5916 5918 5920 5923 5924 5927 5930 5932 5933 5933
5776 5779 5781 5783 5786 5789 5793 5797 5802 5806 5810 5815 5820 5824 5828 5832 5838 5842 5847 5853 5856 5863 5872 5879 5879 5883 5883 5887 5889 5892 5894 5896 5899 5902 5905 5908 5912 5912 5915 5917 5921 5922 5924 5928 5930 5932 5926
5771 5771 5775 5778 5782 5785 5788 5793 5796 5801 5805 5809 5814 5818 5822 5825 5829 5834 5839 5842 5849 5860 5871 5874 5875 5876 5882 5885 5890 5889 5890 5893 5896 5899 5901 5907 5911 5913 5910 5913 5916 5920 5921 5924 5926 5926 5928
5771 5769 5768 5773 5777 5780 5783 5788 5792 5796 5800 5803 5807 5811 5815 5819 5822 5826 5830 5835 5844 5855 5857 5860 5863 5871 5876 5881 5886 5887 5887 5890 5893 5896 5897 5901 5903 5907 5910 5910 5911 5915 5921 5921 5922 5923 5923
5770 5769 5770 5770 5772 5775 5777 5782 5786 5790 5795 5798 5801 5805 5810 5812 5816 5819 5822 5831 5840 5845 5842 5849 5856 5863 5867 5874 5882 5882 5883 5888 5889 5892 5895 5896 5898 5904 5909 5905 5909 5912 5912 5915 5920 5923 5919
5765 5768 5769 5770 5772 5773 5775 5776 5780 5785 5789 5792 5796 5799 5804 5807 5811 5814 5818 5826 5832 5836 5831 5843 5849 5854 5860 5866 5870 5874 5879 5884 5887 5887 5890 5892 5894 5897 5900 5905 5903 5905 5910 5911 5912 5916 5915
5758 5761 5764 5767 5769 5771 5773 5774 5777 5780 5784 5787 5790 5791 5798 5802 5806 5811 5816 5819 5822 5823 5825 5837 5840 5845 5851 5856 5858 5863 5872 5876 5876 5881 5882 5887 5887 5891 5894 5894 5900 5901 5904 5908 5908 5908 5909
5752 5755 5757 5761 5764 5767 5768 5772 5775 5777 5780 5783 5786 5789 5793 5796 5799 5801 5806 5811 5814 5820 5824 5828 5831 5837 5842 5846 5850 5857 5863 5870 5869 5873 5875 5878 5881 5884 5889 5896 5900 5898 5897 5899 5902 5904 5906
5747 5748 5750 5753 5758 5761 5764 5766 5770 5773 5776 5780 5781 5782 5784 5790 5793 5797 5800 5804 5808 5813 5817 5821 5825 5830 5833 5838 5843 5849 5855 5857 5862 5865 5869 5872 5873 5876 5881 5887 5889 5891 5889 5892 5893 5895 5897
5740 5742 5744 5747 5751 5755 5758 5760 5764 5768 5771 5775 5776 5778 5783 5783 5786 5791 5793 5797 5802 5806 5811 5815 5818 5824 5828 5831 5836 5841 5847 5851 5855 5861 5859 5865 5866 5871 5874 5878 5881 5884 5886 5884 5881 5890 5890
5733 5736 5738 5741 5745 5749 5752 5755 5758 5761 5765 5768 5771 5774 5777 5778 5782 5785 5788 5792 5796 5798 5801 5805 5811 5817 5821 5826 5827 5834 5835 5838 5843 5848 5852 5856 5860 5864 5866 5872 5875 5875 5880 5884 5885 5886 5886
5724 5729 5732 5736 5739 5743 5747 5749 5752 5756 5759 5762 5765 5768 5771 5773 5776 5779 5781 5781 5784 5789 5794 5799 5803 5807 5812 5811 5817 5827 5829 5832 5837 5841 5846 5848 5852 5856 5860 5866 5864 5871 5876 5880 5879 5882 5880
5714 5720 5725 5729 5734 5737 5741 5744 5748 5751 5754 5756 5759 5762 5764 5766 5768 5772 5771 5776 5779 5781 5791 5792 5796 5801 5802 5810 5816 5821 5824 5826 5831 5835 5840 5843 5847 5851 5854 5857 5861 5865 5870 5875 5876 5881 5874
5705 5711 5717 5722 5727 5731 5734 5738 5741 5745 5749 5751 5753 5756 5759 5760 5759 5762 5766 5771 5774 5778 5781 5785 5788 5788 5799 5803 5807 5811 5816 5822 5825 5828 5832 5836 5839 5843 5847 5850 5852 5861 5861 5861 5866 5868 5861
5698 5703 5708 5714 5719 5724 5728 5732 5736 5739 5743 5746 5748 5750 5752 5753 5754 5759 5759 5761 5765 5769 5773 5775 5777 5784 5791 5797 5801 5806 5811 5816 5818 5821 5825 5829 5831 5833 5838 5842 5847 5847 5845 5850 5850 5852 5844
5690 5696 5701 5706 5712 5717 5722 5727 5730 5733 5737 5741 5743 5745 5747 5747 5750 5750 5753 5756 5759 5763 5765 5765 5774 5779 5785 5790 5796 5801 5803 5808 5810 5819 5822 5824 5825 5827 5832 5835 5838 5829 5833 5841 5838 5824 5814
5681 5688 5693 5699 5705 5710 5715 5721 5724 5728 5732 5736 5739 5740 5742 5742 5746 5745 5747 5750 5752 5757 5759 5762 5767 5771 5776 5782 5783 5787 5794 5797 5800 5806 5809 5814 5817 5815 5821 5822 5823 5820 5809 5821 5829 5827 5826